sat.trackr.live / text

‹ back to catalog

STARLINK-35168

NORAD 65509 · 2025-198T

PAYLOAD ACTIVE UNKNOWN

§ Identity

Operator
Country
US
Launch date
2025-09-05
Launch site
AFETR
Launch vehicle
Mass (kg)
RCS (m²)

Purposes: comms

External: N2YO · Heavens-Above · Gunter

§ Orbital elements

Epoch: 2026-09-20T20:54:40.343328Z

Period
93.85 min
Inclination
53.1590°
Eccentricity
0.0000921
Mean motion
15.34409354 rev/d
Perigee alt
462.0 km
Apogee alt
463.3 km
Semi-major
6,840.8 km
B*
6.9987e-4
RAAN
80.1152°
Arg perigee
102.4483°
Mean anomaly
257.6623°
Rev number
5,856

§ Raw data

STARLINK-351681 65509U 25198T   26263.87130027  .00023351  00000+0  69987-3 0  99922 65509  53.1590  80.1152 0000921 102.4483 257.6623 15.34409354 58564

JSON: /api/v1/satellites/65509 · /tle

For live sub-satellite position, see the globe view (requires WebGL).

§ Visibility from observer

Set your observer location to see the next 7 days of passes ≥ 10°. The values pass through the URL so the page stays shareable.

No JS? Fill the form by hand. The geolocation button needs JavaScript.